| time (UTC) | temp F | wind direction | speed MPH | gust MPH | rain 1hr in | rain 24hr in | rain mn in | humidity % | barometer mb |
| 20260505111648 | 63 | 50 | 2.0 | 3.0 | 0.00 | 0.00 | 0.00 | 65 | |
| 20260505111144 | 63 | 41 | 3.0 | 4.0 | 0.00 | 0.00 | 0.00 | 63 | |
| 20260505110640 | 63 | 141 | 3.0 | 4.0 | 0.00 | 0.00 | 0.00 | 63 | |
| 20260505110138 | 63 | 140 | 1.0 | 5.0 | 0.00 | 0.00 | 0.00 | 62 | |
| 20260505102114 | 63 | 99 | 2.0 | 3.0 | 0.00 | 0.00 | 0.00 | 62 | |
| 20260505101612 | 63 | 81 | 1.0 | 4.0 | 0.00 | 0.00 | 0.00 | 62 | |
| 20260505101108 | 63 | 69 | 2.0 | 3.0 | 0.00 | 0.00 | 0.00 | 62 | |
| 20260505100604 | 63 | 64 | 2.0 | 7.0 | 0.00 | 0.00 | 0.00 | 62 | |
| 20260505095558 | 62 | 112 | 2.0 | 4.0 | 0.00 | 0.00 | 0.00 | 61 | |
| 20260505095054 | 63 | 54 | 2.0 | 4.0 | 0.00 | 0.00 | 0.00 | 62 | |
| 20260505094551 | 62 | 93 | 0.0 | 3.0 | 0.00 | 0.00 | 0.00 | 62 | |
| 20260505094047 | 62 | 110 | 2.0 | 3.0 | 0.00 | 0.00 | 0.00 | 63 | |
| 20260505093543 | 63 | 30 | 3.0 | 4.0 | 0.00 | 0.00 | 0.00 | 63 | |
| 20260505093041 | 63 | 59 | 2.0 | 4.0 | 0.00 | 0.00 | 0.00 | 62 | |
| 20260505092538 | 63 | 59 | 2.0 | 4.0 | 0.00 | 0.00 | 0.00 | 61 | |
| 20260505092037 | 63 | 211 | 0.0 | 4.0 | 0.00 | 0.00 | 0.00 | 61 | |
| 20260505091533 | 64 | 193 | 0.0 | 3.0 | 0.00 | 0.00 | 0.00 | 61 | |
| 20260505091031 | 63 | 39 | 2.0 | 3.0 | 0.00 | 0.00 | 0.00 | 61 | |
| 20260505090529 | 64 | 74 | 2.0 | 4.0 | 0.00 | 0.00 | 0.00 | 60 | |
| 20260505090027 | 64 | 81 | 3.0 | 4.0 | 0.00 | 0.00 | 0.00 | 58 | |
| 20260505085524 | 64 | 93 | 2.0 | 7.0 | 0.00 | 0.00 | 0.00 | 58 | |
| 20260505085022 | 64 | 154 | 4.0 | 5.0 | 0.00 | 0.00 | 0.00 | 59 | |
| 20260505084520 | 64 | 92 | 1.0 | 3.0 | 0.00 | 0.00 | 0.00 | 60 | |
| 20260505084018 | 64 | 40 | 2.0 | 4.0 | 0.00 | 0.00 | 0.00 | 61 | |
| 20260505083515 | 64 | 16 | 2.0 | 3.0 | 0.00 | 0.00 | 0.00 | 62 | |
| 20260505083011 | 63 | 84 | 0.0 | 2.0 | 0.00 | 0.00 | 0.00 | 62 | |
| 20260505082507 | 63 | 49 | 2.0 | 4.0 | 0.00 | 0.00 | 0.00 | 61 | |
| 20260505082004 | 63 | 41 | 2.0 | 4.0 | 0.00 | 0.00 | 0.00 | 64 | |
| 20260505081501 | 63 | 95 | 3.0 | 3.0 | 0.00 | 0.00 | 0.00 | 63 | |
| 20260505080957 | 63 | 58 | 2.0 | 3.0 | 0.00 | 0.00 | 0.00 | 64 | |
| 20260505080454 | 63 | 56 | 2.0 | 3.0 | 0.00 | 0.00 | 0.00 | 66 | |
| 20260505075949 | 62 | 76 | 2.0 | 3.0 | 0.00 | 0.00 | 0.00 | 69 | |
| 20260505075446 | 61 | 64 | 2.0 | 3.0 | 0.00 | 0.00 | 0.00 | 69 | |
| 20260505074943 | 61 | 48 | 2.0 | 3.0 | 0.00 | 0.00 | 0.00 | 72 | |
| 20260505074441 | 61 | 63 | 2.0 | 3.0 | 0.00 | 0.00 | 0.00 | 73 | |
| 20260505073938 | 60 | 84 | 1.0 | 3.0 | 0.00 | 0.00 | 0.00 | 78 | |
| 20260505073436 | 60 | 69 | 2.0 | 2.0 | 0.00 | 0.00 | 0.00 | 81 | |
| 20260505072932 | 59 | 82 | 1.0 | 2.0 | 0.00 | 0.00 | 0.00 | 83 | |
| 20260505072429 | 59 | 93 | 2.0 | 2.0 | 0.00 | 0.00 | 0.00 | 85 | |
| 20260505071925 | 59 | 85 | 2.0 | 2.0 | 0.00 | 0.00 | 0.00 | 86 | |
| 20260505071421 | 60 | 89 | 2.0 | 2.0 | 0.00 | 0.00 | 0.00 | 87 | |
| 20260505070919 | 60 | 93 | 2.0 | 3.0 | 0.00 | 0.00 | 0.00 | 87 | |
| 20260505070415 | 59 | 75 | 2.0 | 2.0 | 0.00 | 0.00 | 0.00 | 88 | |
| 20260505065911 | 60 | 89 | 2.0 | 2.0 | 0.00 | 0.00 | 0.00 | 88 | |
| 20260505065408 | 60 | 70 | 2.0 | 2.0 | 0.00 | 0.00 | 0.00 | 87 | |
| 20260505064905 | 59 | 55 | 2.0 | 3.0 | 0.00 | 0.00 | 0.00 | 87 | |
| 20260505064402 | 59 | 86 | 2.0 | 3.0 | 0.00 | 0.00 | 0.00 | 88 | |
| 20260505063900 | 59 | 80 | 2.0 | 2.0 | 0.00 | 0.00 | 0.00 | 89 | |
| 20260505063356 | 59 | 81 | 1.0 | 2.0 | 0.00 | 0.00 | 0.00 | 89 | |
| 20260505062852 | 59 | 86 | 1.0 | 2.0 | 0.00 | 0.00 | 0.00 | 90 | |
| 20260505062350 | 60 | 78 | 2.0 | 2.0 | 0.00 | 0.00 | 0.00 | 89 | |
| 20260505061847 | 60 | 99 | 1.0 | 2.0 | 0.00 | 0.00 | 0.00 | 89 | |
| 20260505061345 | 60 | 70 | 2.0 | 2.0 | 0.00 | 0.00 | 0.00 | 88 | |
| 20260505060842 | 59 | 93 | 1.0 | 2.0 | 0.00 | 0.00 | 0.00 | 89 | |
| 20260505060339 | 59 | 64 | 2.0 | 2.0 | 0.00 | 0.00 | 0.00 | 90 | |
| 20260505055835 | 59 | 106 | 2.0 | 2.0 | 0.00 | 0.00 | 0.00 | 91 | |
| 20260505055331 | 59 | 62 | 2.0 | 2.0 | 0.00 | 0.00 | 0.00 | 92 | |
| 20260505054828 | 59 | 77 | 2.0 | 2.0 | 0.00 | 0.00 | 0.00 | 92 | |
| 20260505054325 | 59 | 89 | 1.0 | 2.0 | 0.00 | 0.00 | 0.00 | 92 | |
| 20260505053824 | 59 | 68 | 2.0 | 2.0 | 0.00 | 0.00 | 0.00 | 92 | |
| 20260505053320 | 59 | 76 | 1.0 | 3.0 | 0.00 | 0.00 | 0.00 | 91 | |
| 20260505052817 | 59 | 88 | 2.0 | 2.0 | 0.00 | 0.00 | 0.00 | 91 | |
| 20260505052314 | 59 | 86 | 1.0 | 2.0 | 0.00 | 0.00 | 0.00 | 92 | |
| 20260505051811 | 59 | 67 | 2.0 | 2.0 | 0.00 | 0.00 | 0.00 | 92 | |
| 20260505051309 | 59 | 92 | 2.0 | 2.0 | 0.00 | 0.00 | 0.00 | 93 | |
| 20260505050807 | 59 | 76 | 1.0 | 2.0 | 0.00 | 0.00 | 0.00 | 93 | |
| 20260505050305 | 59 | 56 | 2.0 | 2.0 | 0.00 | 0.00 | 0.00 | 93 | |
| 20260505041735 | 59 | 74 | 1.0 | 2.0 | 0.00 | 0.00 | 0.00 | 93 | |
| 20260505041232 | 60 | 84 | 1.0 | 2.0 | 0.00 | 0.00 | 0.00 | 92 | |
| 20260505040729 | 60 | 62 | 2.0 | 2.0 | 0.00 | 0.00 | 0.00 | 92 | |
| 20260505040226 | 60 | 86 | 2.0 | 2.0 | 0.00 | 0.00 | 0.00 | 92 | |
| 20260505035723 | 60 | 82 | 2.0 | 3.0 | 0.00 | 0.00 | 0.00 | 92 | |
| 20260505035219 | 60 | 81 | 1.0 | 2.0 | 0.00 | 0.00 | 0.00 | 92 | |
| 20260505034716 | 60 | 63 | 2.0 | 3.0 | 0.00 | 0.00 | 0.00 | 91 | |
| 20260505034213 | 60 | 62 | 2.0 | 2.0 | 0.00 | 0.00 | 0.00 | 91 | |
| 20260505033709 | 60 | 78 | 1.0 | 2.0 | 0.00 | 0.00 | 0.00 | 91 | |
| 20260505033208 | 60 | 85 | 1.0 | 2.0 | 0.00 | 0.00 | 0.00 | 90 | |
| 20260505032705 | 61 | 69 | 2.0 | 3.0 | 0.00 | 0.00 | 0.00 | 90 | |
| 20260505032201 | 61 | 88 | 2.0 | 3.0 | 0.00 | 0.00 | 0.00 | 89 | |
| 20260505031658 | 61 | 88 | 1.0 | 3.0 | 0.00 | 0.00 | 0.00 | 88 | |
| 20260505031155 | 61 | 86 | 2.0 | 4.0 | 0.00 | 0.00 | 0.00 | 88 | |
| 20260505030651 | 61 | 67 | 2.0 | 2.0 | 0.00 | 0.00 | 0.00 | 88 | |
| 20260505030147 | 61 | 75 | 2.0 | 2.0 | 0.00 | 0.00 | 0.00 | 87 | |
| 20260505025644 | 61 | 85 | 2.0 | 3.0 | 0.00 | 0.00 | 0.00 | 87 | |
| 20260505025142 | 61 | 88 | 1.0 | 2.0 | 0.00 | 0.00 | 0.00 | 87 | |
| 20260505024639 | 61 | 78 | 1.0 | 3.0 | 0.00 | 0.00 | 0.00 | 86 | |
| 20260505024136 | 61 | 72 | 2.0 | 2.0 | 0.00 | 0.00 | 0.00 | 86 | |
| 20260505023634 | 62 | 69 | 1.0 | 2.0 | 0.00 | 0.00 | 0.00 | 85 | |
| 20260505023131 | 62 | 97 | 2.0 | 2.0 | 0.00 | 0.00 | 0.00 | 84 | |
| 20260505022628 | 62 | 77 | 2.0 | 2.0 | 0.00 | 0.00 | 0.00 | 83 | |
| 20260505022125 | 62 | 96 | 2.0 | 2.0 | 0.00 | 0.00 | 0.00 | 82 | |
| 20260505021622 | 62 | 109 | 2.0 | 2.0 | 0.00 | 0.00 | 0.00 | 81 | |
| 20260505021119 | 63 | 95 | 2.0 | 2.0 | 0.00 | 0.00 | 0.00 | 80 | |
| 20260505020614 | 62 | 125 | 3.0 | 3.0 | 0.00 | 0.00 | 0.00 | 79 | |
| 20260505020111 | 62 | 115 | 2.0 | 3.0 | 0.00 | 0.00 | 0.00 | 79 | |
| 20260505015608 | 62 | 93 | 1.0 | 3.0 | 0.00 | 0.00 | 0.00 | 82 | |
| 20260505015105 | 62 | 100 | 2.0 | 2.0 | 0.00 | 0.00 | 0.00 | 82 | |
| 20260505014601 | 62 | 82 | 2.0 | 2.0 | 0.00 | 0.00 | 0.00 | 83 | |
| 20260505014058 | 62 | 97 | 2.0 | 2.0 | 0.00 | 0.00 | 0.00 | 83 | |
| 20260505013555 | 62 | 80 | 1.0 | 2.0 | 0.00 | 0.00 | 0.00 | 82 | |
| 20260505013053 | 62 | 77 | 2.0 | 2.0 | 0.00 | 0.00 | 0.00 | 82 | |
| 20260505012551 | 62 | 92 | 2.0 | 2.0 | 0.00 | 0.00 | 0.00 | 82 | |
| 20260505012048 | 62 | 95 | 1.0 | 2.0 | 0.00 | 0.00 | 0.00 | 81 | |
| 20260505011543 | 62 | 40 | 2.0 | 2.0 | 0.00 | 0.00 | 0.00 | 79 | |
| 20260505011041 | 62 | 76 | 2.0 | 2.0 | 0.00 | 0.00 | 0.00 | 78 | |
| 20260505010536 | 63 | 66 | 2.0 | 3.0 | 0.00 | 0.00 | 0.00 | 78 | |
| 20260505010033 | 63 | 106 | 2.0 | 2.0 | 0.00 | 0.00 | 0.00 | 77 | |
| 20260505005529 | 63 | 112 | 2.0 | 4.0 | 0.00 | 0.00 | 0.00 | 76 | |
| 20260505005027 | 63 | 112 | 2.0 | 2.0 | 0.00 | 0.00 | 0.00 | 77 | |
| 20260505004523 | 63 | 79 | 2.0 | 2.0 | 0.00 | 0.00 | 0.00 | 77 | |
| 20260505004020 | 63 | 106 | 1.0 | 2.0 | 0.00 | 0.00 | 0.00 | 78 | |
| 20260505003517 | 63 | 100 | 2.0 | 4.0 | 0.00 | 0.00 | 0.00 | 78 | |
| 20260505003015 | 62 | 118 | 2.0 | 2.0 | 0.00 | 0.00 | 0.00 | 80 | |
| 20260505002509 | 62 | 102 | 2.0 | 2.0 | 0.00 | 0.00 | 0.00 | 80 | |
| 20260505002009 | 62 | 101 | 2.0 | 3.0 | 0.00 | 0.00 | 0.00 | 80 | |
| 20260505001506 | 63 | 93 | 2.0 | 2.0 | 0.00 | 0.00 | 0.00 | 80 | |
| 20260505001003 | 62 | 72 | 2.0 | 2.0 | 0.00 | 0.00 | 0.00 | 80 | |
| 20260505000500 | 63 | 37 | 2.0 | 3.0 | 0.00 | 0.00 | 0.00 | 79 | |
| 20260504235957 | 63 | 85 | 2.0 | 2.0 | 0.00 | 0.00 | 0.00 | 78 | |
| 20260504235454 | 63 | 69 | 2.0 | 2.0 | 0.00 | 0.00 | 0.00 | 76 | |
| 20260504234950 | 64 | 103 | 2.0 | 3.0 | 0.00 | 0.00 | 0.00 | 75 | |
| 20260504234448 | 64 | 97 | 1.0 | 3.0 | 0.00 | 0.00 | 0.00 | 76 | |
| 20260504233944 | 64 | 152 | 3.0 | 4.0 | 0.00 | 0.00 | 0.00 | 74 | |
| 20260504233440 | 65 | 126 | 3.0 | 4.0 | 0.00 | 0.00 | 0.00 | 72 | |
| 20260504232937 | 66 | 119 | 3.0 | 5.0 | 0.00 | 0.00 | 0.00 | 68 | |
| 20260504232434 | 66 | 113 | 3.0 | 4.0 | 0.00 | 0.00 | 0.00 | 61 | |
| 20260504231932 | 66 | 114 | 2.0 | 3.0 | 0.00 | 0.00 | 0.00 | 61 | |
| 20260504231427 | 66 | 60 | 2.0 | 3.0 | 0.00 | 0.00 | 0.00 | 62 | |
| 20260504230924 | 66 | 26 | 3.0 | 3.0 | 0.00 | 0.00 | 0.00 | 63 | |
| 20260504230421 | 66 | 8 | 2.0 | 4.0 | 0.00 | 0.00 | 0.00 | 62 | |
| 20260504225920 | 66 | 56 | 0.0 | 3.0 | 0.00 | 0.00 | 0.00 | 63 | |
| 20260504225416 | 66 | 95 | 2.0 | 4.0 | 0.00 | 0.00 | 0.00 | 61 | |
| 20260504224914 | 67 | 37 | 2.0 | 2.0 | 0.00 | 0.00 | 0.00 | 60 | |
| 20260504224410 | 66 | 59 | 1.0 | 3.0 | 0.00 | 0.00 | 0.00 | 60 | |
| 20260504223907 | 66 | 47 | 2.0 | 2.0 | 0.00 | 0.00 | 0.00 | 61 | |
| 20260504223403 | 67 | 132 | 2.0 | 3.0 | 0.00 | 0.00 | 0.00 | 62 | |
| 20260504222859 | 67 | 113 | 2.0 | 2.0 | 0.00 | 0.00 | 0.00 | 60 | |
| 20260504222356 | 67 | 112 | 2.0 | 3.0 | 0.00 | 0.00 | 0.00 | 62 | |
| 20260504221854 | 67 | 127 | 2.0 | 3.0 | 0.00 | 0.00 | 0.00 | 63 | |
| 20260504221351 | 68 | 127 | 2.0 | 4.0 | 0.00 | 0.00 | 0.00 | 61 | |
| 20260504220848 | 68 | 106 | 1.0 | 2.0 | 0.00 | 0.00 | 0.00 | 57 | |
| 20260504220344 | 68 | 114 | 2.0 | 2.0 | 0.00 | 0.00 | 0.00 | 57 | |
| 20260504215842 | 69 | 85 | 1.0 | 2.0 | 0.00 | 0.00 | 0.00 | 58 | |
| 20260504215338 | 69 | 65 | 2.0 | 3.0 | 0.00 | 0.00 | 0.00 | 57 | |
| 20260504214834 | 68 | 25 | 2.0 | 2.0 | 0.00 | 0.00 | 0.00 | 58 | |
| 20260504214331 | 68 | 50 | 0.0 | 2.0 | 0.00 | 0.00 | 0.00 | 60 | |
| 20260504213828 | 69 | 144 | 3.0 | 4.0 | 0.00 | 0.00 | 0.00 | 57 | |
| 20260504213324 | 69 | 117 | 2.0 | 3.0 | 0.00 | 0.00 | 0.00 | 55 | |
| 20260504212822 | 70 | 122 | 1.0 | 2.0 | 0.00 | 0.00 | 0.00 | 53 | |
| 20260504212317 | 71 | 40 | 2.0 | 3.0 | 0.00 | 0.00 | 0.00 | 53 | |
| 20260504211815 | 72 | 37 | 2.0 | 2.0 | 0.00 | 0.00 | 0.00 | 52 | |
| 20260504211311 | 71 | 60 | 0.0 | 3.0 | 0.00 | 0.00 | 0.00 | 51 | |
| 20260504210809 | 71 | 20 | 0.0 | 3.0 | 0.00 | 0.00 | 0.00 | 49 | |
| 20260504210306 | 72 | 49 | 1.0 | 2.0 | 0.00 | 0.00 | 0.00 | 49 | |
| 20260504205803 | 72 | 118 | 2.0 | 2.0 | 0.00 | 0.00 | 0.00 | 52 | |
| 20260504205301 | 72 | 101 | 0.0 | 3.0 | 0.00 | 0.00 | 0.00 | 50 | |
| 20260504204758 | 73 | 60 | 1.0 | 2.0 | 0.00 | 0.00 | 0.00 | 48 | |
| 20260504204256 | 72 | 34 | 2.0 | 2.0 | 0.00 | 0.00 | 0.00 | 51 | |
| 20260504203756 | 72 | 29 | 2.0 | 2.0 | 0.00 | 0.00 | 0.00 | 49 | |
| 20260504203253 | 72 | 32 | 0.0 | 2.0 | 0.00 | 0.00 | 0.00 | 48 | |
| 20260504202752 | 73 | 14 | 2.0 | 2.0 | 0.00 | 0.00 | 0.00 | 48 | |
| 20260504202250 | 73 | 68 | 0.0 | 2.0 | 0.00 | 0.00 | 0.00 | 50 | |
| 20260504201747 | 72 | 63 | 0.0 | 2.0 | 0.00 | 0.00 | 0.00 | 49 | |
| 20260504201244 | 72 | 44 | 2.0 | 2.0 | 0.00 | 0.00 | 0.00 | 48 | |
| 20260504200742 | 73 | 355 | 0.0 | 2.0 | 0.00 | 0.00 | 0.00 | 48 | |
| 20260504200238 | 74 | 109 | 2.0 | 2.0 | 0.00 | 0.00 | 0.00 | 46 | |
| 20260504195735 | 74 | 36 | 0.0 | 1.0 | 0.00 | 0.00 | 0.00 | 45 | |
| 20260504195230 | 74 | 13 | 1.0 | 2.0 | 0.00 | 0.00 | 0.00 | 44 | |
| 20260504194728 | 74 | 80 | 0.0 | 2.0 | 0.00 | 0.00 | 0.00 | 41 | |
| 20260504194224 | 74 | 1 | 2.0 | 2.0 | 0.00 | 0.00 | 0.00 | 43 | |
| 20260504193720 | 74 | 138 | 0.0 | 2.0 | 0.00 | 0.00 | 0.00 | 44 | |
| 20260504193218 | 74 | 93 | 2.0 | 2.0 | 0.00 | 0.00 | 0.00 | 44 | |
| 20260504192716 | 73 | 62 | 0.0 | 2.0 | 0.00 | 0.00 | 0.00 | 47 | |
| 20260504192214 | 74 | 77 | 0.0 | 2.0 | 0.00 | 0.00 | 0.00 | 45 | |
| 20260504191712 | 74 | 131 | 0.0 | 2.0 | 0.00 | 0.00 | 0.00 | 45 | |
| 20260504191209 | 73 | 154 | 0.0 | 2.0 | 0.00 | 0.00 | 0.00 | 43 | |
| 20260504190704 | 73 | 109 | 0.0 | 2.0 | 0.00 | 0.00 | 0.00 | 46 | |
| 20260504190201 | 71 | 181 | 1.0 | 2.0 | 0.00 | 0.00 | 0.00 | 47 | |
| 20260504185657 | 72 | 60 | 0.0 | 3.0 | 0.00 | 0.00 | 0.00 | 46 | |
| 20260504185154 | 72 | 232 | 0.0 | 2.0 | 0.00 | 0.00 | 0.00 | 46 | |
| 20260504184650 | 71 | 359 | 2.0 | 3.0 | 0.00 | 0.00 | 0.00 | 46 | |
| 20260504184145 | 72 | 93 | 1.0 | 2.0 | 0.00 | 0.00 | 0.00 | 46 | |
| 20260504183642 | 72 | 88 | 1.0 | 2.0 | 0.00 | 0.00 | 0.00 | 46 | |
| 20260504183139 | 72 | 123 | 0.0 | 2.0 | 0.00 | 0.00 | 0.00 | 43 | |
| 20260504182637 | 72 | 57 | 2.0 | 2.0 | 0.00 | 0.00 | 0.00 | 44 | |
| 20260504182134 | 71 | 85 | 2.0 | 2.0 | 0.00 | 0.00 | 0.00 | 48 | |
| 20260504181632 | 70 | 109 | 1.0 | 2.0 | 0.00 | 0.00 | 0.00 | 47 | |
| 20260504181129 | 70 | 120 | 1.0 | 2.0 | 0.00 | 0.00 | 0.00 | 47 | |
| 20260504180628 | 71 | 105 | 1.0 | 2.0 | 0.00 | 0.00 | 0.00 | 47 | |
| 20260504180126 | 70 | 140 | 0.0 | 2.0 | 0.00 | 0.00 | 0.00 | 47 | |
| 20260504175624 | 71 | 116 | 0.0 | 2.0 | 0.00 | 0.00 | 0.00 | 46 | |
| 20260504175120 | 70 | 36 | 0.0 | 3.0 | 0.00 | 0.00 | 0.00 | 45 | |
| 20260504174618 | 69 | 127 | 0.0 | 4.0 | 0.00 | 0.00 | 0.00 | 47 | |
| 20260504174114 | 70 | 69 | 0.0 | 3.0 | 0.00 | 0.00 | 0.00 | 50 | |
| 20260504173611 | 70 | 84 | 0.0 | 2.0 | 0.00 | 0.00 | 0.00 | 48 | |
| 20260504173109 | 70 | 354 | 3.0 | 3.0 | 0.00 | 0.00 | 0.00 | 49 | |
| 20260504172605 | 70 | 93 | 0.0 | 2.0 | 0.00 | 0.00 | 0.00 | 48 | |
| 20260504172102 | 69 | 93 | 1.0 | 2.0 | 0.00 | 0.00 | 0.00 | 46 | |
| 20260504171558 | 68 | 60 | 1.0 | 2.0 | 0.00 | 0.00 | 0.00 | 47 | |
| 20260504171055 | 68 | 113 | 0.0 | 2.0 | 0.00 | 0.00 | 0.00 | 48 | |
| 20260504170551 | 68 | 100 | 2.0 | 2.0 | 0.00 | 0.00 | 0.00 | 50 | |
| 20260504150935 | 63 | 85 | 1.0 | 3.0 | 0.00 | 0.00 | 0.00 | 62 | |
| 20260504150432 | 62 | 12 | 2.0 | 3.0 | 0.00 | 0.00 | 0.00 | 60 | |
| 20260504140858 | 62 | 39 | 1.0 | 3.0 | 0.00 | 0.00 | 0.00 | 57 | |
| 20260504140349 | 63 | 66 | 1.0 | 3.0 | 0.00 | 0.00 | 0.00 | 56 | |
| 20260504130817 | 60 | 58 | 2.0 | 4.0 | 0.00 | 0.00 | 0.00 | 60 | |
| 20260504130313 | 59 | 122 | 3.0 | 4.0 | 0.00 | 0.00 | 0.00 | 59 | |
| 20260504120237 | 55 | 94 | 2.0 | 3.0 | 0.00 | 0.00 | 0.00 | 63 |